EST,Max TemperatureF,Mean TemperatureF,Min TemperatureF,Max Dew PointF,MeanDew PointF,Min DewpointF,Max Humidity, Mean Humidity, Min Humidity, Max Sea Level PressureIn, Mean Sea Level PressureIn, Min Sea Level PressureIn, Max VisibilityMiles, Mean VisibilityMiles, Min VisibilityMiles, Max Wind SpeedMPH, Mean Wind SpeedMPH, Max Gust SpeedMPH,PrecipitationIn, CloudCover, Events, WindDirDegrees
2013-2-1,18,15,12,7,5,1,79,68,59,30.41,30.23,29.93,10,9,2,17,12,,0.06,6,Snow,248
2013-2-2,21,16,10,18,13,2,93,82,65,30.38,30.08,29.95,10,3,1,12,6,17,0.01,7,Snow,202
2013-2-3,21,18,15,18,13,9,93,79,60,30.09,29.95,29.84,10,8,2,14,5,,0.00,8,Snow,249
2013-2-4,23,18,14,20,16,8,93,82,70,30.13,29.98,29.86,10,4,1,13,6,,0.01,7,Snow,216
2013-2-5,27,24,21,22,21,17,100,90,74,30.02,29.91,29.82,10,4,1,10,1,,0.00,7,Snow,259
2013-2-6,28,22,14,23,15,8,88,70,45,30.42,30.28,30.05,10,8,2,13,5,,0.00,4,Snow,300
2013-2-7,41,27,13,25,19,9,84,69,49,30.39,30.25,30.02,10,10,9,9,2,,0.00,1,,123
2013-2-8,35,29,21,34,26,15,100,84,73,30.27,29.94,29.79,10,7,2,23,9,32,0.13,7,Rain-Snow,270
2013-2-9,30,24,17,16,14,11,86,71,47,30.49,30.41,30.24,10,10,10,17,10,,0.00,4,Snow,316
2013-2-10,46,30,15,22,16,10,84,56,30,30.43,30.24,29.98,10,10,10,13,2,,0.00,4,,149
2013-2-11,54,44,34,44,35,22,100,82,47,29.97,29.83,29.71,10,8,2,25,9,41,0.04,6,Rain,207
2013-2-12,35,30,23,23,21,20,92,70,60,30.14,30.05,29.98,10,10,8,18,11,29,0.00,5,,254
2013-2-13,34,26,18,26,22,16,96,83,69,29.99,29.89,29.78,10,8,4,8,2,,0.00,0,,320
2013-2-14,36,29,22,34,28,20,93,88,76,29.99,29.94,29.86,10,7,2,15,4,,0.00,6,,203
2013-2-15,36,30,22,27,24,18,93,75,55,30.15,30.06,29.98,10,8,2,13,7,,0.00,6,Snow,281
2013-2-16,26,22,17,19,15,8,93,78,47,30.14,30.05,29.93,10,8,2,9,3,,0.00,5,Snow,329
2013-2-17,21,16,10,16,10,2,93,77,50,30.35,30.07,29.93,10,6,1,17,6,25,0.00,7,Snow,277
2013-2-18,38,20,4,26,12,1,88,63,43,30.38,30.21,29.91,10,10,6,9,3,,0.00,0,,152
2013-2-19,41,29,17,37,24,13,93,81,60,30.02,29.83,29.64,10,5,0,29,12,38,0.12,7,Fog-Rain-Snow,230
2013-2-20,19,17,15,14,10,6,86,71,57,30.29,30.11,29.94,10,6,0,20,13,,0.00,7,Fog-Snow,263
2013-2-21,21,18,16,14,12,9,86,76,66,30.45,30.33,30.18,10,7,1,12,7,,0.00,6,Snow,309
2013-2-22,34,26,17,32,26,11,96,86,63,30.38,30.10,29.98,10,7,1,12,5,,0.00,7,Rain,114
2013-2-23,39,34,26,34,30,22,100,93,70,30.06,29.97,29.88,10,3,0,9,0,,0.00,7,Fog,254
2013-2-24,30,28,25,25,21,19,91,78,64,30.22,30.07,29.97,10,8,2,13,4,,0.00,7,Snow,275
2013-2-25,38,28,17,27,22,18,100,80,51,30.31,30.23,30.15,10,6,0,9,1,,0.00,2,Fog,81
2013-2-26,37,33,29,33,29,19,93,83,55,30.15,29.79,29.59,10,6,1,17,11,26,0.62,6,Rain-Snow,102
2013-2-27,41,36,32,36,34,29,100,91,76,29.73,29.63,29.54,10,8,2,13,7,,0.16,8,Rain,208
2013-2-28,34,32,30,32,29,26,100,89,81,29.89,29.71,29.60,10,5,1,13,8,,0.01,8,Rain-Snow,254